Regional Weather Roundup
Issued by NWS State College, PA

Home | Current Version | Previous Version | Text Only | Print | Product List | Glossary On
Versions: 1 2 3 4 5 6 7 8 9 10 11 12 13 14 15 16 17 18 19 20 21 22 23 24 25 26 27 28 29 30 31 32 33 34 35 36 37 38 39 40 41 42 43 44 45 46 47 48 49 50
000
ASUS41 KCTP 240610
RWRCTP

REGIONAL WEATHER ROUNDUP
NATIONAL WEATHER SERVICE STATE COLLEGE PA
200 AM EDT SUN MAY 24 2015

Note: "fair" indicates few or no clouds below 12,000 feet with no
significant weather and/or obstructions to visibility.

* = STATION THAT DOES NOT REPORT PRECIPITATION /E.G. RAIN...SNOW...ETC/
    THUNDER OR FOG.

PAZ002>004-007>009-013>016-020>023-029>032-240700-
WESTERN PENNSYLVANIA

CITY           SKY/WX    TMP DP  RH WIND       PRES   REMARKS
ERIE           CLEAR     53  36  52 S3        30.31F
MEADVILLE      CLEAR     52  36  54 CALM      30.32F
FRANKLIN*      CLEAR     48  34  57 CALM      30.35S
NEW CASTLE     FAIR      47  43  86 CALM      30.34F
BEAVER COUNTY  NOT AVBL
BUTLER*        CLEAR     45  37  76 NE3       30.35S
PITTSBURGH INT CLEAR     52  43  71 CALM      30.32F
PITTSBURGH     CLEAR     51  41  68 SE7       30.33F
INDIANA*       CLEAR     45  41  87 E3        30.39S
LATROBE        CLEAR     45  43  93 CALM      30.37S
WASHINGTON CO* CLEAR     43  39  87 CALM      30.35F
$$

PAZ004>006-010>012-017>019-024>028-033>037-041-042-045-046-049>053-240700-
CENTRAL PENNSYLVANIA

CITY           SKY/WX    TMP DP  RH WIND       PRES   REMARKS
BRADFORD       CLEAR     37  33  85 CALM      30.34F
DUBOIS         CLEAR     47  35  63 CALM      30.34S
CLEARFIELD     CLEAR     41  34  76 N5        30.36F
JOHNSTOWN      CLEAR     54  33  45 SW5       30.37S
ALTOONA        CLEAR     50  35  56 CALM      30.37F
STATE COLLEGE  CLEAR     49  34  55 SW3       30.36F
WILLIAMSPORT   CLEAR     45  38  76 CALM      30.35S
SELINSGROVE    CLEAR     42  40  92 CALM      30.36S
FT INDIANTOWN  CLEAR     43  39  85 CALM      30.37F
CAPITAL CITY   CLEAR     50  40  68 S3        30.37F
HARRISBURG     CLEAR     54  41  61 E3        30.36F
YORK           CLEAR     46  42  86 CALM      30.38S
$$

PAZ038>040-043-044-047-048-054-055-060>062-067>071-240700-
EASTERN PENNSYLVANIA

CITY           SKY/WX    TMP DP  RH WIND       PRES   REMARKS
SCRANTON       CLEAR     46  34  62 CALM      30.34S
MOUNT POCONO   CLEAR     46  32  58 W7        30.35S
ALLENTOWN      CLEAR     40  35  83 CALM      30.36F
QUAKERTOWN*    CLEAR     41  37  87 CALM      30.38R
READING        CLEAR     47  38  71 CALM      30.36F
LANCASTER      CLEAR     49  40  71 CALM      30.37F
COATESVILLE    CLEAR     54  39  58 W3        30.38F
POTTSTOWN      CLEAR     46  38  73 CALM      30.38F
BLUE BELL      CLEAR     45  39  81 CALM      30.37R
DOYLESTOWN     CLEAR     50  35  56 S3        30.36F
WILLOW GROVE   NOT AVBL
NORTH PHILA    CLEAR     52  41  66 CALM      30.39S
PHILADELPHIA   PTCLDY    56  48  74 SW6       30.38F
$$



USA.gov is the U.S. government's official web portal to all federal, state and local government web resources and services.